Glendive, MT

11:23 AM MST on January 19, 2018 (GMT -0700)
Dawson Community

Weather History for KGDV - January, 2012

Change the Weather History Date:

Saturday, January 14, 2012

  Actual Average Record
Temperature  
Mean Temperature 25 °F 19 °F  
Max Temperature 35 °F 29 °F 52 °F (2006)
Min Temperature 15 °F 8 °F -32 °F (2005)
Degree Days  
Heating Degree Days 40 47  
Month to date heating degree days 658  
Year to date heating degree days 658  
Since 1 July heating degree days 3646  
Cooling Degree Days 0 0  
Month to date cooling degree days 0  
Year to date cooling degree days 0  
Since 1 July cooling degree days 0  
Moisture  
Dew Point 16 °F    
Average Humidity 73    
Maximum Humidity 93    
Minimum Humidity 56    
Precipitation  
Precipitation 0.00 in 0.02 in 0.01 in (2016)
Month to date precipitation 0.18  
Year to date precipitation 0.18  
Sea Level Pressure  
Sea Level Pressure 29.89 in    
Wind  
Wind Speed 6 mph (South)    
Max Wind Speed 13 mph    
Max Gust Speed -    
Visibility 10 miles    
Events      
T = Trace of Precipitation, MM = Missing Value Source: NWS Daily Summary

Daily Weather History Graph

Daily Weather History Graph

Search for Another Location

Airport or City:

Trip Planner

Search our weather history database for the weather conditions in past years. The results will help you decide how hot, cold, wet, or windy it might be!

Date:

Astronomy

Jan. 14, 2012 Rise Set
Actual Time 7:41 AM MST 4:34 PM MST
Civil Twilight 7:07 AM MST 5:09 PM MST
Nautical Twilight 6:29 AM MST 5:47 PM MST
Astronomical Twilight 5:52 AM MST 6:23 PM MST
Moon 11:29 PM MST (1/14) 10:01 AM MST (1/14)
Length of Visible Light 10h 01m
Length of Day
8h 52m
Waning Gibbous, 68% of the Moon is Illuminated
Jan 14
Waning Gibbous
Jan 16
Last Quarter
Jan 23
New
Jan 30
First Quarter
Feb 7
Full

Hourly Weather History & Observations

Time (MST) Temp. Windchill Dew Point Humidity Pressure Visibility Wind Dir Wind Speed Gust Speed Precip Events Conditions
12:15 AM 19.4 °F 6.6 °F 12.2 °F 74% 29.98 in 10.0 mi WNW 12.7 mph - N/A   Clear
12:35 AM 21.2 °F 10.1 °F 12.2 °F 68% 29.99 in 10.0 mi West 10.4 mph - N/A   Clear
12:55 AM 19.4 °F 11.5 °F 12.2 °F 74% 29.99 in 10.0 mi NW 5.8 mph - N/A   Clear
1:15 AM 19.4 °F 11.5 °F 15.8 °F 86% 30.00 in 10.0 mi NW 5.8 mph - N/A   Clear
1:35 AM 21.2 °F 12.6 °F 14.0 °F 74% 30.00 in 10.0 mi NNW 6.9 mph - N/A   Clear
1:55 AM 19.4 °F - 12.2 °F 74% 30.00 in 10.0 mi Calm Calm - N/A   Clear
2:15 AM 19.4 °F - 14.0 °F 80% 30.00 in 10.0 mi Calm Calm - N/A   Clear
2:35 AM 19.4 °F 14.3 °F 12.2 °F 74% 30.00 in 10.0 mi NNW 3.5 mph - N/A   Clear
3:15 AM 17.6 °F - 10.4 °F 73% 30.01 in 10.0 mi Calm Calm - N/A   Clear
3:35 AM 17.6 °F 12.3 °F 10.4 °F 73% 30.01 in 10.0 mi East 3.5 mph - N/A   Clear
3:55 AM 15.8 °F 10.2 °F 10.4 °F 79% 30.00 in 10.0 mi ESE 3.5 mph - N/A   Clear
4:15 AM 17.6 °F 9.3 °F 12.2 °F 79% 30.00 in 10.0 mi SE 5.8 mph - N/A   Clear
4:35 AM 15.8 °F - 12.2 °F 86% 30.00 in 10.0 mi Calm Calm - N/A   Clear
4:56 AM 15.8 °F - 12.2 °F 86% 30.00 in 10.0 mi Calm Calm - N/A   Clear
5:15 AM 15.8 °F 7.2 °F 14.0 °F 93% 29.99 in 10.0 mi WNW 5.8 mph - N/A   Clear
5:35 AM 17.6 °F 8.2 °F 12.2 °F 79% 29.99 in 10.0 mi WNW 6.9 mph - N/A   Clear
5:55 AM 15.8 °F 3.4 °F 10.4 °F 79% 29.99 in 10.0 mi West 10.4 mph - N/A   Clear
6:35 AM 17.6 °F 6.4 °F 12.2 °F 79% 29.97 in 10.0 mi WNW 9.2 mph - N/A   Clear
6:55 AM 15.8 °F - 12.2 °F 86% 29.98 in 10.0 mi Calm Calm - N/A   Clear
7:16 AM 17.6 °F 12.3 °F 12.2 °F 79% 29.97 in 10.0 mi WSW 3.5 mph - N/A   Clear
7:35 AM 15.8 °F 7.2 °F 10.4 °F 79% 29.97 in 10.0 mi SSW 5.8 mph - N/A   Clear
7:55 AM 15.8 °F 7.2 °F 10.4 °F 79% 29.97 in 10.0 mi South 5.8 mph - N/A   Clear
8:15 AM 17.6 °F 10.7 °F 12.2 °F 79% 29.96 in 10.0 mi SSW 4.6 mph - N/A   Clear
8:35 AM 17.6 °F 12.3 °F 15.8 °F 93% 29.97 in 10.0 mi South 3.5 mph - N/A   Clear
9:15 AM 21.2 °F - 15.8 °F 80% 29.96 in 10.0 mi Calm Calm - N/A   Clear
9:35 AM 21.2 °F 14.9 °F 17.6 °F 86% 29.95 in 10.0 mi South 4.6 mph - N/A   Clear
9:55 AM 23.0 °F 17.0 °F 17.6 °F 80% 29.95 in 10.0 mi South 4.6 mph - N/A   Clear
10:15 AM 23.0 °F 15.8 °F 17.6 °F 80% 29.94 in 10.0 mi SSE 5.8 mph - N/A   Partly Cloudy
10:35 AM 23.0 °F 14.7 °F 19.4 °F 86% 29.94 in 10.0 mi SSE 6.9 mph - N/A   Partly Cloudy
10:55 AM 24.8 °F 17.9 °F 19.4 °F 80% 29.93 in 10.0 mi SSE 5.8 mph - N/A   Scattered Clouds
11:15 AM 26.6 °F 21.2 °F 19.4 °F 74% 29.92 in 10.0 mi SSE 4.6 mph - N/A   Mostly Cloudy
11:35 AM 26.6 °F 19.1 °F 19.4 °F 74% 29.90 in 10.0 mi South 6.9 mph - N/A   Partly Cloudy
12:15 PM 30.2 °F 22.6 °F 19.4 °F 64% 29.88 in 10.0 mi South 8.1 mph - N/A   Partly Cloudy
12:35 PM 30.2 °F 23.4 °F 19.4 °F 64% 29.87 in 10.0 mi South 6.9 mph - N/A   Scattered Clouds
12:55 PM 30.2 °F 22.6 °F 19.4 °F 64% 29.84 in 10.0 mi SSE 8.1 mph - N/A   Mostly Cloudy
1:15 PM 30.2 °F 22.6 °F 21.2 °F 69% 29.83 in 10.0 mi SSE 8.1 mph - N/A   Scattered Clouds
1:55 PM 33.8 °F 27.7 °F 21.2 °F 60% 29.81 in 10.0 mi SE 6.9 mph - N/A   Partly Cloudy
2:15 PM 33.8 °F 28.6 °F 21.2 °F 60% 29.80 in 10.0 mi SE 5.8 mph - N/A   Clear
2:35 PM 33.8 °F 27.7 °F 21.2 °F 60% 29.79 in 10.0 mi SE 6.9 mph - N/A   Clear
3:16 PM 35.6 °F 29.9 °F 21.2 °F 56% 29.76 in 10.0 mi SE 6.9 mph - N/A   Partly Cloudy
3:35 PM 35.6 °F 30.7 °F 21.2 °F 56% 29.75 in 10.0 mi SE 5.8 mph - N/A   Scattered Clouds
3:55 PM 33.8 °F 29.6 °F 21.2 °F 60% 29.75 in 10.0 mi SE 4.6 mph - N/A   Mostly Cloudy
4:15 PM 33.8 °F - 21.2 °F 60% 29.74 in 10.0 mi Calm Calm - N/A   Mostly Cloudy
4:35 PM 32.0 °F - 21.2 °F 64% 29.73 in 10.0 mi Calm Calm - N/A   Overcast
4:55 PM 32.0 °F 25.6 °F 21.2 °F 64% 29.71 in 10.0 mi ENE 6.9 mph - N/A   Mostly Cloudy
5:15 PM 32.0 °F 28.7 °F 21.2 °F 64% 29.71 in 10.0 mi North 3.5 mph - N/A   Overcast
5:55 PM 30.2 °F 26.7 °F 21.2 °F 69% 29.70 in 10.0 mi East 3.5 mph - N/A   Scattered Clouds
6:15 PM 30.2 °F 24.3 °F 21.2 °F 69% 29.68 in 10.0 mi East 5.8 mph - N/A   Mostly Cloudy
6:35 PM 30.2 °F 25.4 °F 21.2 °F 69% 29.68 in 10.0 mi South 4.6 mph - N/A   Mostly Cloudy
6:55 PM 30.2 °F - 19.4 °F 64% 29.68 in 10.0 mi Calm Calm - N/A   Mostly Cloudy
7:15 PM 28.4 °F 24.6 °F 21.2 °F 74% 29.66 in 10.0 mi South 3.5 mph - N/A   Scattered Clouds
7:35 PM 30.2 °F 26.7 °F 19.4 °F 64% 29.67 in 10.0 mi SSW 3.5 mph - N/A   Clear
7:55 PM 28.4 °F 22.2 °F 19.4 °F 69% 29.66 in 10.0 mi South 5.8 mph - N/A   Mostly Cloudy
8:15 PM 28.4 °F 23.3 °F 17.6 °F 64% 29.65 in 10.0 mi SSW 4.6 mph - N/A   Overcast
8:35 PM 28.4 °F 23.3 °F 19.4 °F 69% 29.65 in 10.0 mi SSW 4.6 mph - N/A   Overcast
8:55 PM 28.4 °F 23.3 °F 21.2 °F 74% 29.66 in 10.0 mi West 4.6 mph - N/A   Overcast
9:15 PM 30.2 °F - 21.2 °F 69% 29.65 in 10.0 mi Calm Calm - N/A   Overcast
9:35 PM 30.2 °F 24.3 °F 21.2 °F 69% 29.64 in 10.0 mi South 5.8 mph - N/A   Overcast
9:55 PM 28.4 °F 19.1 °F 21.2 °F 74% 29.64 in 10.0 mi South 10.4 mph - N/A   Scattered Clouds
10:15 PM 28.4 °F 18.0 °F 21.2 °F 74% 29.63 in 10.0 mi South 12.7 mph - N/A   Mostly Cloudy
10:35 PM 28.4 °F 19.1 °F 19.4 °F 69% 29.63 in 10.0 mi South 10.4 mph - N/A   Partly Cloudy
10:55 PM 26.6 °F 19.1 °F 19.4 °F 74% 29.62 in 10.0 mi South 6.9 mph - N/A   Clear
11:15 PM 26.6 °F 16.8 °F 21.2 °F 80% 29.61 in 10.0 mi South 10.4 mph - N/A   Partly Cloudy
11:35 PM 26.6 °F 19.1 °F 19.4 °F 74% 29.62 in 10.0 mi SSW 6.9 mph - N/A   Scattered Clouds
11:55 PM 26.6 °F 18.2 °F 19.4 °F 74% 29.62 in 10.0 mi SSW 8.1 mph - N/A   Clear